Tracking 18624 objects as of 26-April-2017
HD Live streaming from Space Station
objects crossing your sky now

OPS 9322 (IDSCS 9)

Track OPS 9322 (IDSCS 9) now!
OPS 9322 (IDSCS 9) is classified as:


NORAD ID: 2649
Int'l Code: 1967-003B
Perigee: 33,547.5 km
Apogee: 33,827.9 km
Inclination: 2.5 °
Period: 1,329.9 minutes
Semi major axis: 40058 km
RCS: 0.1995 m2 (medium)
Launch date: January 18, 1967
Source: United States (US)
Launch site: AIR FORCE EASTERN TEST RANGE (AFETR)
Your satellite tracking list
Your tracking list is empty





NASA's NSSDC Master Catalog

Two Line Element Set (TLE):
1  2649U 67003B   17113.85289014 -.00000116 +00000-0 +00000-0 0  9996
2  2649 002.4773 054.8918 0034989 039.2278 167.2912 01.08282364103247
Source of the keplerian elements: AFSPC